Location: ???????????
(54.6970°N, 39.1477°E)
Time: 06:50:59
(UTC+00:00)

ALOS - Pass Details

Date: 19 May 2025
Orbit: 663 x 666 km, 98.1° (Epoch: 24 June)

Event Time Altitude Azimuth Distance (km) Brightness Sun altitude
Rises 23:43:57 0° 19° (NNE) 3,020 7.4 -9.2°
Reaches altitude 10° 23:46:18 10° 27° (NNE) 2,101 6.4 -9.0°
Maximum altitude 23:50:39 41° 98° (E) 961 3.3 -8.7°
Drops below altitude 10° 23:54:58 10° 169° (S) 2,084 4.4 -8.3°
Enters shadow 23:56:44 - 175° (S) 2,772 4.9 -8.2°
